User: anonymous   Login
Location: Herm
(49.4830°N, 2.4500°W)
Time: 05:20:14
(UTC+01:00)
Language:

Hubble Space Telescope - Orbit

View from above orbital plane
View from above orbital plane
View from above satellite
View from above satellite

Ground track
Ground track

The orbit data is extracted from the following two-line orbital elements,

1 20580U 90037B   18116.34286737 +.00000498 +00000-0 +19556-4 0  9992
2 20580 028.4692 097.8212 0002473 305.3580 201.2386 15.09024424337542
Epoch (UTC): 26 April 2018 08:13:43
Eccentricity: 0.0002473
inclination: 28.4692°
perigee height: 537 km
apogee height: 541 km
right ascension of ascending node: 97.8212°
argument of perigee: 305.3580°
revolutions per day: 15.09024424
mean anomaly at epoch: 201.2386°
orbit number at epoch: 33754

The dashed part of the orbit path shows where the satellite is in the earth's shadow,  

DLR